Location: Newark
(53.3503°N, 9.6158°W)
Time: 11:16:08
(UTC+00:00)

Envisat - Pass Details

Date: 26 October 2019
Orbit: 764 x 766 km, 98.1° (Epoch: 17 November)

Event Time Altitude Azimuth Distance (km) Brightness Sun altitude
Rises 20:30:18 0° 229° (SW) 3,227 6.6 -28.9°
Reaches altitude 10° 20:35:23 10° 274° (W) 2,310 6.3 -29.6°
Maximum altitude 20:35:52 10° 279° (W) 2,302 6.4 -29.7°
Drops below altitude 10° 20:36:21 10° 285° (WNW) 2,311 6.4 -29.7°
Sets 20:41:29 0° 329° (NNW) 3,246 7.0 -30.4°
